Location: Unspecified
(0.0000°N, 0.0000°E)
Time: 19:05:41

S3M - Pass Details

Date: 27 January 2013
Orbit: 949 x 1005 km, 83.0° (Epoch: 25 October)

Event Time Altitude Azimuth Distance (km) Brightness Sun altitude
Rises 20:16:43 0° 349° (N) 3,714 6.9 -29.2°
Reaches altitude 10° 20:19:17 10° 346° (NNW) 2,771 6.3 -29.8°
Maximum altitude 20:25:32 60° 267° (W) 1,145 4.5 -31.3°
Drops below altitude 10° 20:31:50 10° 188° (S) 2,782 6.7 -32.8°
Sets 20:34:24 0° 184° (S) 3,730 7.4 -33.4°
